Temperature
18 18 17 17 17 17 17 17 17 17 17 17 17 17 17 17 17 17 17 17 17 17 17 17 17 17 17 17 16 16 16 16 16 16 16 16 16 16 16 16 16 16 16
17 17 17 17 17 17 17 17 17 17 17 17 17 17 17 17 17 17 17 17 17 17 17 17 16 16 16 16 16 16 16 16 16 16 16 16 16 16 16 16 16 16 16
17 17 17 17 17 17 17 17 17 17 17 17 17 17 17 17 17 17 17 17 17 17 16 16 16 16 16 16 16 16 16 16 16 16 16 16 16 16 16 16 16 16 16
17 17 17 17 17 17 17 17 17 17 17 17 17 17 17 17 17 17 17 16 16 16 16 16 16 16 16 16 16 16 16 16 16 16 16 16 16 16 16 16 16 16 16
17 17 16 16 16 16 16 16 16 16 16 16 16 16 16 16 16 16 16 16 16 16 16 16 16 16 16 16 16 16 16 16 16 16 16 16 16 16 15 15 15 15 15
16 16 16 16 16 16 16 16 16 16 16 16 16 16 16 16 16 16 16 16 16 16 16 16 16 16 16 16 16 15 15 15 15 15 15 15 15 15 15 15 15 15 15
16 16 16 16 16 16 16 16 16 16 16 16 16 16 16 16 16 16 16 16 16 16 16 16 16 15 15 15 15 15 15 15 15 15 15 15 15 15 15 15 15 15 15
16 16 16 16 16 16 16 16 16 16 16 16 16 16 16 16 16 16 16 16 16 16 16 16 15 15 15 15 15 15 15 15 15 15 15 15 15 15 15 15 15 15 15
16 16 16 16 16 16 16 15 16 16 16 16 16 16 16 16 16 16 16 16 16 16 16 15 15 15 15 15 15 15 15 15 15 15 15 15 15 15 15 15 15 15 15
16 15 15 15 15 15 15 15 15 15 15 16 16 16 16 16 16 15 15 15 15 15 15 15 15 15 15 15 15 15 15 15 14 14 14 14 14 14 14 14 14 15 15
15 15 15 15 15 15 15 15 15 15 15 15 15 15 16 16 16 15 15 15 15 15 15 15 15 15 15 15 14 14 14 14 14 14 14 14 14 14 14 14 14 14 14
15 15 15 15 15 15 15 15 15 15 15 15 15 15 15 15 15 15 15 15 15 15 15 15 15 15 14 14 14 14 14 14 14 14 14 14 14 14 14 14 14 14 14
15 15 15 15 15 15 15 15 15 15 15 15 15 15 15 15 15 15 15 15 15 14 14 14 14 14 14 14 14 14 14 14 14 14 14 14 14 13 14 14 14 14 14
16 15 15 15 15 15 15 15 15 15 15 15 15 15 15 15 15 14 14 14 14 14 14 14 14 14 14 14 14 13 13 13 13 13 13 13 13 13 13 13 13 13 13
15 15 15 15 15 14 14 14 14 14 14 14 14 14 14 14 14 14 14 14 14 14 14 14 14 14 14 14 13 13 13 13 13 13 13 13 13 13 13 13 13 13 13
15 15 15 15 15 14 14 14 14 14 14 14 14 14 14 14 14 14 14 13 13 13 13 14 13 13 13 13 13 13 13 13 13 13 13 13 13 13 12 13 13 13 13
15 15 15 15 15 14 14 14 14 14 14 14 14 14 14 14 14 13 13 13 13 13 13 13 13 13 13 13 13 13 13 13 13 13 13 12 12 12 12 12 12 12 12
15 15 15 15 15 14 14 14 14 14 14 14 14 14 14 14 13 13 13 13 13 13 13 13 13 13 13 13 13 13 13 13 13 13 12 12 12 12 12 12 12 12 12
15 15 15 15 15 15 14 14 14 14 14 14 14 14 14 14 14 13 13 13 13 13 13 13 13 13 13 13 13 13 13 13 13 12 12 12 12 12 12 12 12 12 12
15 15 15 15 15 15 14 14 14 14 14 14 14 14 14 14 14 13 13 13 13 13 13 13 13 13 13 13 13 13 13 13 13 13 12 12 12 12 12 12 12 12 12
15 15 15 15 15 15 14 14 14 14 14 14 14 14 14 14 14 13 13 13 13 13 13 13 13 13 13 13 12 12 12 12 13 13 13 13 12 12 12 12 12 12 12
15 15 15 15 15 15 15 15 15 14 14 14 14 14 14 14 14 13 13 13 13 13 13 13 12 12 13 12 12 12 12 12 12 12 12 12 12 12 12 12 12 12 12
15 15 15 15 15 15 15 15 14 14 14 14 14 14 14 14 14 13 13 13 13 13 13 12 12 13 12 12 12 12 12 12 12 12 12 12 12 12 12 12 12 12 12
15 15 15 15 15 15 15 15 14 14 14 14 14 14 14 14 14 13 13 13 13 13 13 12 12 12 12 12 12 12 11 12 12 12 11 11 12 12 12 12 12 12 12
16 16 15 15 15 15 15 15 14 14 14 14 14 14 14 14 14 13 13 13 13 13 13 12 12 12 12 12 12 11 11 11 11 12 11 11 11 11 11 12 12 12 11
16 16 15 15 15 15 15 14 14 14 14 14 14 14 14 13 13 13 13 13 13 13 12 12 12 12 12 12 12 11 11 11 11 11 11 11 11 10 10 11 11 11 11
Wind_Speed
4 4 4 4 4 4 4 4 4 4 3 3 2 3 3 2 3 4 4 7 9 9 9 9 8 8 9 9 9 9 9 9 9 9 9 9 9 10 10 9 9 9 9
6 4 4 3 3 4 4 4 4 3 2 2 2 2 2 2 2 3 3 4 6 8 8 8 8 9 9 9 9 9 9 9 10 10 10 10 10 10 10 10 10 10 10
8 6 4 3 3 5 5 5 4 3 2 2 2 2 1 1 2 2 2 3 3 5 6 7 8 8 9 9 9 9 10 10 10 11 11 11 11 11 11 11 10 11 11
9 7 4 3 5 5 5 3 3 3 2 2 1 1 1 1 0 1 2 2 2 3 4 6 8 8 8 9 9 10 11 11 11 12 12 12 12 12 12 12 12 12 12
10 8 5 5 7 5 3 3 2 2 2 2 1 2 2 2 1 1 0 1 2 3 3 5 6 7 7 8 8 9 10 11 12 12 12 12 12 12 13 13 14 14 13
9 8 5 6 7 4 3 3 3 2 2 2 2 3 3 3 2 2 1 1 0 1 2 2 3 3 5 6 7 7 8 10 11 12 13 13 13 13 13 14 15 15 15
10 8 5 5 5 4 4 4 3 3 2 2 3 3 3 4 3 3 2 2 1 1 0 1 1 1 1 3 5 6 7 7 9 11 12 13 13 13 14 14 15 16 16
10 8 7 5 5 5 4 4 3 3 2 2 2 3 2 3 3 4 3 2 2 2 2 2 1 0 1 1 2 4 5 5 6 8 9 11 12 13 13 14 16 16 17
10 9 8 7 5 5 5 4 4 5 3 2 2 3 3 2 1 3 3 4 3 3 3 3 2 1 1 1 2 2 1 2 4 4 6 8 9 11 12 14 15 16 17
9 9 9 8 6 4 5 4 4 3 4 3 2 2 2 3 3 1 2 3 3 3 3 2 3 2 2 1 1 1 2 2 2 2 2 4 6 8 10 12 14 15 16
6 8 9 8 6 5 5 4 4 4 3 4 3 2 2 2 2 2 1 2 2 3 3 2 2 2 2 1 1 1 2 2 2 2 3 3 3 5 7 8 10 12 14
3 5 7 7 6 5 5 4 4 5 4 4 3 2 3 2 2 2 2 0 1 2 3 2 2 2 2 1 1 1 1 2 2 3 4 4 4 4 5 6 8 9 10
4 5 5 5 5 5 5 5 4 4 4 5 4 2 2 2 2 3 3 2 0 1 2 2 2 2 1 1 1 2 2 2 3 4 5 6 6 7 7 8 8 9 10
5 6 6 6 6 6 6 5 4 3 4 4 4 4 3 2 2 2 3 3 1 1 2 2 2 2 2 1 2 2 3 4 5 6 7 7 8 9 9 9 10 10 10
6 7 7 6 6 6 6 6 4 4 4 4 4 4 3 2 2 2 2 3 4 2 1 2 2 2 3 3 3 3 4 6 7 7 8 9 10 11 11 11 11 11 12
7 8 7 7 6 6 6 5 5 4 5 4 3 4 3 2 2 2 2 2 2 3 2 2 2 2 3 4 4 4 6 8 8 9 10 10 11 11 12 12 12 12 13
8 9 9 8 8 7 7 6 5 6 6 4 4 4 4 3 3 2 2 2 2 2 2 2 2 2 2 3 4 5 6 7 8 10 11 11 11 11 11 12 12 13 13
8 9 8 8 8 8 8 8 7 7 6 6 5 5 4 3 3 3 3 3 3 3 3 3 2 2 3 3 4 5 6 6 8 10 11 11 11 11 11 12 12 13 13
8 8 8 9 9 8 8 8 7 7 7 7 6 6 6 5 4 4 4 3 3 3 3 3 3 2 3 3 3 4 5 5 7 9 10 10 11 12 12 13 13 14 14
9 9 9 9 9 9 8 8 7 7 7 6 6 7 7 7 7 6 5 5 4 4 3 4 4 4 4 3 3 4 5 4 5 7 9 10 11 12 13 14 15 15 15
10 9 9 8 8 8 8 9 8 8 7 7 6 7 7 9 10 8 6 6 5 5 4 4 5 4 5 4 4 3 5 6 6 5 5 6 7 8 11 13 15 16 17
8 9 9 9 9 8 11 13 10 8 7 8 7 7 7 8 9 11 11 10 9 7 7 5 5 6 8 7 5 5 5 5 6 3 3 6 5 8 11 12 15 18 18
8 8 9 9 10 10 12 13 14 9 8 8 8 7 6 7 8 7 8 9 10 12 12 8 9 10 9 7 6 7 7 7 8 6 4 8 8 9 11 14 18 20 20
9 9 9 10 9 10 13 13 13 9 8 8 8 8 8 7 7 7 6 7 7 8 10 10 10 11 10 9 8 8 8 8 8 7 6 7 9 9 10 13 17 19 21
9 8 7 9 9 9 12 13 11 7 7 8 8 8 8 8 9 9 6 7 8 8 9 12 14 14 16 15 11 6 6 6 8 8 5 5 7 8 9 10 13 17 18
9 9 8 8 9 9 10 12 12 6 7 7 6 6 9 9 9 8 7 7 8 8 6 6 7 9 11 12 12 10 8 8 8 7 5 5 6 5 7 6 7 10 11
Wind_Direction
154 149 141 134 128 124 121 112 101 94 85 72 83 120 134 143 152 160 176 186 191 193 191 191 193 195 192 190 187 186 184 183 183 183 182 180 177 176 178 176 173 173 171
159 151 140 140 142 143 135 125 117 109 92 80 67 87 140 158 167 171 182 196 202 205 204 205 207 208 206 204 202 199 197 197 195 194 194 192 191 189 189 189 186 185 184
160 153 146 149 159 151 134 115 103 94 83 75 59 53 91 148 173 182 193 203 213 221 220 222 221 217 218 216 214 212 212 211 208 206 206 206 203 201 200 199 198 196 195
164 156 155 156 157 144 133 121 106 93 81 80 65 27 23 25 64 196 198 205 220 239 238 238 233 226 227 224 223 222 222 221 221 219 217 217 215 213 210 209 209 208 206
165 159 157 152 148 136 129 132 101 109 111 101 93 50 27 29 22 34 211 230 234 245 254 255 245 235 233 231 228 227 227 226 226 226 225 224 224 223 220 218 218 216 215
161 155 148 145 143 132 128 123 115 88 95 103 87 60 30 25 40 37 32 35 274 248 260 261 255 248 241 240 236 235 233 231 228 228 228 229 228 228 228 227 227 226 225
157 152 144 139 141 143 149 143 122 102 74 81 90 53 22 28 39 27 27 38 27 9 19 295 281 269 273 256 247 245 245 241 235 233 232 231 232 231 231 232 233 232 232
157 157 148 149 144 135 135 139 132 120 87 73 115 103 52 9 8 19 25 37 32 46 49 61 94 279 330 321 283 266 262 257 250 244 237 235 235 233 232 234 236 236 236
157 151 152 148 146 146 152 155 149 136 127 71 75 137 143 190 321 357 18 31 34 44 34 36 41 28 16 347 338 343 328 280 271 265 250 244 242 241 242 242 241 239 240
150 151 152 148 144 143 146 154 145 134 133 132 85 60 101 140 136 64 358 11 29 40 26 26 38 43 54 51 35 39 46 37 13 337 305 275 256 252 255 257 253 247 244
148 153 150 145 142 141 144 140 136 134 134 145 147 131 96 74 85 130 119 354 12 17 19 12 23 39 46 50 50 24 34 35 31 19 359 334 297 275 272 271 266 263 258
142 147 147 144 144 142 144 143 138 137 135 132 135 139 146 142 143 134 140 127 356 341 350 1 15 15 21 30 355 343 7 358 350 346 342 338 329 312 299 287 279 277 276
158 164 152 150 150 152 148 138 131 134 139 138 140 136 136 135 138 136 131 136 77 336 335 345 351 356 6 16 347 323 304 301 302 309 312 315 315 311 304 299 295 290 287
165 161 155 156 155 152 148 139 131 137 136 136 137 132 123 126 137 145 146 141 116 4 347 319 323 332 346 333 318 310 292 292 293 298 300 301 303 302 299 296 294 293 293
158 157 157 155 155 152 148 142 140 140 137 136 139 135 125 127 130 136 139 146 148 165 259 296 302 316 314 290 292 289 283 290 295 297 296 296 297 296 294 292 289 288 289
158 158 162 161 158 154 150 145 143 145 142 143 146 140 134 135 131 130 138 140 144 157 205 254 266 291 301 294 289 285 283 292 295 295 296 296 296 294 292 289 286 286 285
164 168 170 167 166 164 161 157 160 158 156 157 157 160 163 154 149 149 145 149 156 159 198 257 260 279 284 287 301 299 292 291 292 295 297 297 297 296 295 292 288 285 283
173 174 170 170 174 173 171 171 173 173 173 177 181 176 185 173 173 176 175 181 188 191 198 239 263 271 267 278 285 289 289 285 281 285 288 288 290 291 292 290 288 285 283
174 173 172 177 181 180 182 185 182 182 186 191 191 193 199 187 199 200 198 204 209 206 206 227 258 262 270 276 287 286 285 284 285 283 283 282 283 284 286 286 285 283 281
178 181 185 187 187 186 188 190 188 191 195 201 203 205 205 203 210 208 210 216 215 216 217 232 256 267 269 269 262 275 289 284 288 291 283 281 278 281 282 283 282 281 279
187 186 185 190 190 189 196 194 195 199 200 207 214 217 218 218 218 213 217 218 212 222 229 239 255 266 271 269 266 263 277 290 285 269 280 282 281 283 284 282 279 277 276
185 183 189 192 195 204 203 197 194 200 203 209 219 225 229 232 231 228 228 224 213 219 231 236 248 256 266 264 264 263 270 286 289 262 263 284 278 280 281 278 275 274 273
186 190 197 196 204 212 207 203 202 199 208 215 220 226 235 235 226 233 239 238 233 229 224 230 247 254 261 258 258 268 262 260 268 272 268 284 279 278 280 276 272 270 270
192 198 202 204 209 218 212 211 208 205 214 222 223 223 229 239 234 228 241 252 254 250 241 237 242 251 256 257 248 257 268 271 269 264 239 270 281 279 282 281 275 269 267
197 201 200 204 211 223 215 213 205 204 219 229 231 229 229 238 241 230 231 248 263 268 260 247 246 255 261 263 258 258 260 262 277 279 229 242 273 280 282 278 275 270 267
200 200 206 207 211 219 215 211 201 206 223 235 236 234 230 232 241 234 227 237 255 267 276 283 275 274 272 270 258 237 242 255 268 277 246 225 266 278 285 272 272 276 276
Height
1552 1554 1556 1558 1559 1561 1562 1563 1565 1566 1568 1569 1570 1570 1571 1572 1573 1574 1575 1576 1577 1578 1579 1580 1581 1582 1583 1584 1585 1587 1588 1589 1590 1591 1592 1593 1595 1596 1597 1598 1599 1600 1601
1552 1554 1556 1558 1560 1561 1562 1564 1565 1566 1568 1569 1570 1571 1572 1573 1573 1574 1575 1576 1577 1578 1579 1580 1581 1582 1583 1584 1586 1587 1588 1589 1590 1591 1592 1593 1594 1596 1597 1598 1599 1600 1601
1552 1554 1556 1558 1560 1561 1563 1564 1565 1566 1568 1569 1570 1571 1572 1573 1573 1574 1575 1576 1577 1578 1579 1580 1581 1582 1583 1584 1585 1586 1587 1588 1589 1591 1592 1593 1594 1595 1596 1597 1598 1599 1600
1552 1553 1555 1557 1559 1561 1562 1563 1564 1566 1567 1568 1569 1570 1571 1572 1573 1574 1575 1576 1577 1578 1579 1580 1580 1581 1582 1583 1584 1585 1586 1587 1588 1589 1591 1592 1593 1594 1595 1596 1597 1598 1599
1551 1553 1555 1556 1558 1560 1562 1563 1564 1565 1566 1568 1569 1570 1571 1572 1573 1574 1575 1576 1577 1577 1578 1579 1580 1581 1582 1583 1583 1584 1585 1586 1587 1588 1589 1590 1591 1592 1594 1595 1596 1597 1598
1550 1552 1554 1556 1557 1559 1561 1562 1564 1565 1566 1567 1568 1569 1570 1571 1572 1573 1574 1575 1576 1577 1578 1578 1579 1580 1581 1581 1582 1583 1583 1584 1585 1586 1587 1588 1589 1590 1592 1593 1594 1595 1596
1548 1551 1552 1554 1556 1558 1560 1561 1562 1564 1565 1566 1567 1569 1570 1571 1572 1572 1573 1574 1575 1576 1577 1578 1578 1579 1580 1580 1581 1581 1582 1582 1583 1584 1585 1586 1587 1588 1589 1590 1591 1592 1593
1547 1549 1551 1553 1555 1557 1559 1560 1561 1562 1563 1565 1567 1568 1569 1571 1571 1572 1572 1573 1574 1575 1576 1577 1577 1578 1578 1579 1579 1579 1580 1580 1581 1581 1582 1583 1584 1585 1586 1587 1588 1589 1590
1546 1548 1550 1552 1554 1556 1557 1559 1560 1561 1563 1564 1566 1568 1569 1569 1570 1571 1571 1572 1573 1574 1575 1576 1576 1577 1577 1577 1577 1578 1578 1578 1578 1579 1579 1580 1581 1581 1582 1583 1584 1585 1586
1545 1547 1549 1551 1553 1555 1556 1558 1559 1560 1562 1563 1565 1566 1568 1568 1569 1570 1571 1572 1573 1574 1574 1575 1576 1576 1576 1576 1576 1576 1577 1577 1577 1577 1577 1577 1578 1578 1579 1579 1580 1581 1582
1544 1546 1548 1550 1552 1554 1555 1557 1558 1560 1561 1563 1564 1565 1566 1567 1568 1569 1570 1571 1572 1573 1573 1574 1575 1575 1575 1575 1575 1575 1575 1575 1575 1575 1575 1575 1575 1575 1575 1576 1576 1577 1577
1542 1545 1547 1550 1551 1553 1555 1556 1558 1559 1560 1562 1563 1564 1565 1566 1567 1568 1569 1570 1571 1572 1572 1573 1573 1574 1574 1574 1574 1574 1574 1573 1573 1573 1573 1572 1572 1572 1572 1572 1572 1572 1572
1541 1544 1546 1548 1551 1552 1554 1555 1557 1558 1559 1560 1562 1563 1564 1565 1566 1567 1568 1569 1569 1570 1571 1572 1572 1572 1573 1573 1573 1572 1572 1571 1571 1570 1570 1569 1569 1569 1568 1568 1568 1568 1568
1540 1543 1545 1548 1550 1551 1553 1554 1556 1557 1558 1559 1560 1561 1563 1563 1564 1565 1567 1567 1568 1569 1569 1570 1570 1570 1571 1571 1571 1571 1570 1570 1569 1568 1567 1566 1566 1565 1565 1564 1564 1563 1563
1539 1542 1544 1546 1548 1550 1552 1553 1555 1556 1557 1558 1559 1560 1561 1562 1563 1564 1565 1566 1567 1567 1567 1568 1568 1568 1569 1569 1569 1568 1568 1567 1566 1565 1564 1564 1563 1562 1561 1560 1560 1559 1559
1538 1540 1543 1545 1547 1549 1550 1552 1553 1555 1556 1557 1558 1559 1560 1561 1562 1562 1563 1564 1565 1566 1566 1566 1566 1566 1566 1566 1566 1566 1565 1565 1564 1563 1562 1561 1560 1559 1558 1557 1556 1555 1554
1536 1539 1541 1543 1545 1547 1549 1550 1552 1553 1554 1555 1557 1558 1559 1560 1560 1561 1562 1562 1563 1563 1564 1564 1564 1564 1564 1564 1563 1563 1562 1561 1561 1560 1559 1557 1556 1555 1554 1553 1552 1551 1550
1534 1537 1539 1542 1544 1546 1547 1549 1550 1552 1553 1554 1555 1556 1557 1558 1559 1560 1560 1560 1561 1561 1562 1561 1561 1561 1561 1561 1560 1559 1558 1558 1557 1556 1554 1553 1552 1551 1550 1548 1547 1546 1545
1532 1535 1537 1540 1542 1544 1545 1547 1548 1550 1551 1552 1553 1554 1555 1556 1557 1557 1558 1558 1559 1559 1559 1558 1558 1558 1557 1557 1556 1555 1554 1553 1552 1551 1550 1549 1547 1546 1545 1543 1542 1541 1540
1530 1532 1535 1537 1539 1541 1543 1545 1546 1547 1549 1550 1551 1552 1553 1554 1554 1555 1555 1556 1556 1556 1556 1555 1555 1554 1553 1553 1552 1551 1549 1549 1547 1546 1545 1544 1542 1541 1539 1538 1536 1535 1534
1527 1530 1532 1534 1536 1538 1540 1542 1543 1545 1546 1547 1548 1549 1550 1551 1552 1552 1552 1552 1553 1552 1552 1551 1551 1550 1549 1549 1547 1546 1544 1543 1542 1541 1539 1538 1537 1535 1533 1532 1530 1529 1527
1523 1526 1528 1531 1533 1534 1537 1539 1540 1542 1543 1544 1545 1547 1547 1548 1548 1548 1548 1548 1549 1548 1548 1547 1546 1545 1544 1544 1543 1541 1539 1537 1535 1536 1533 1531 1531 1528 1527 1525 1524 1522 1521
1519 1522 1525 1527 1529 1531 1533 1535 1537 1538 1540 1541 1542 1543 1543 1544 1544 1544 1544 1544 1544 1544 1544 1543 1541 1540 1540 1539 1538 1536 1534 1532 1530 1529 1527 1523 1523 1521 1520 1518 1517 1515 1513
1515 1518 1520 1523 1525 1527 1529 1531 1533 1534 1535 1536 1537 1538 1539 1539 1540 1540 1540 1539 1539 1539 1538 1537 1536 1535 1535 1534 1532 1530 1528 1526 1523 1523 1521 1517 1515 1513 1512 1510 1509 1508 1506
1510 1513 1516 1518 1520 1523 1525 1527 1529 1529 1530 1531 1532 1533 1534 1534 1535 1535 1534 1534 1534 1534 1533 1532 1531 1530 1529 1528 1526 1524 1522 1519 1516 1515 1514 1510 1507 1505 1503 1501 1501 1500 1499
1506 1509 1511 1513 1515 1518 1520 1522 1523 1524 1525 1526 1527 1528 1529 1529 1530 1529 1529 1528 1527 1528 1527 1526 1525 1524 1523 1521 1520 1518 1515 1513 1510 1507 1506 1504 1501 1498 1494 1492 1493 1492 1491